Weather History for KIML - December, 2013

Change the Weather History Date:

Wednesday, December 18, 2013

  Actual Average Record
Temperature  
Mean Temperature 49 °F 28 °F  
Max Temperature 69 °F 40 °F 69 °F (2013)
Min Temperature 28 °F 15 °F -14 °F (1983)
Degree Days  
Heating Degree Days 16 37  
Month to date heating degree days 689 646  
Cooling Degree Days 0 0  
Month to date cooling degree days 0 0  
Year to date cooling degree days 1166 963  
Moisture  
Dew Point 18 °F    
Average Humidity 38    
Maximum Humidity 63    
Minimum Humidity 12    
Precipitation  
Precipitation 0.00 in 0.00 in 0.55 in (1973)
Sea Level Pressure  
Sea Level Pressure 29.82 in    
Wind  
Wind Speed 4 mph (WSW)    
Max Wind Speed 13 mph    
Max Gust Speed 16 mph    
Visibility 9 miles    
Events      
T = Trace of Precipitation, MM = Missing Value Source: NWS Daily Summary

Daily Weather History Graph

Daily Weather History Graph

Search for Another Location

Airport or City:

Trip Planner

Search our weather history database for the weather conditions in past years. The results will help you decide how hot, cold, wet, or windy it might be!

Date:

Astronomy

Dec. 18, 2013 Rise Set
Actual Time 7:04 AM MST 4:21 PM MST
Civil Twilight 6:34 AM MST 4:52 PM MST
Nautical Twilight 5:59 AM MST 5:26 PM MST
Astronomical Twilight 5:26 AM MST 6:00 PM MST
Moon 5:55 PM MST (12/18) 7:45 AM MST (12/18)
Length of Visible Light 10h 18m
Length of Day
9h 16m
Full, 98% of the Moon is Illuminated
Dec 18
Full
Dec 25
Last Quarter
Jan 1
New
Jan 7
First Quarter
Jan 15
Full

Hourly Weather History & Observations

Time (MST) Temp. Windchill Dew Point Humidity Pressure Visibility Wind Dir Wind Speed Gust Speed Precip Events Conditions
12:53 AM 35.1 °F 27.4 °F 17.1 °F 48% 29.98 in 10.0 mi WSW 10.4 mph - N/A   Clear
1:53 AM 33.1 °F 24.9 °F 18.0 °F 54% 29.96 in 10.0 mi WSW 10.4 mph - N/A   Unknown
2:53 AM 36.0 °F 29.6 °F 18.0 °F 48% 29.94 in 10.0 mi West 8.1 mph - N/A   Clear
3:53 AM 32.0 °F 27.5 °F 18.0 °F 56% 29.94 in 10.0 mi WSW 4.6 mph - N/A   Clear
4:53 AM 39.9 °F 35.1 °F 18.0 °F 41% 29.91 in 10.0 mi WNW 6.9 mph - N/A   Clear
5:53 AM 37.9 °F 34.4 °F 18.0 °F 45% 29.89 in 10.0 mi West 4.6 mph - N/A   Clear
6:53 AM 34.0 °F - 18.0 °F 52% 29.91 in 10.0 mi Calm Calm - N/A   Clear
7:53 AM 35.1 °F 31.0 °F 19.0 °F 52% 29.91 in 10.0 mi SSW 4.6 mph - N/A   Clear
8:53 AM 39.9 °F 36.7 °F 21.9 °F 49% 29.89 in 10.0 mi WSW 4.6 mph - N/A   Clear
9:53 AM 52.0 °F - 19.0 °F 27% 29.87 in 10.0 mi WSW 9.2 mph - N/A   Clear
10:53 AM 57.9 °F - 19.9 °F 23% 29.83 in 10.0 mi WSW 4.6 mph - N/A   Clear
11:53 AM 64.0 °F - 19.0 °F 18% 29.79 in 10.0 mi WSW 4.6 mph - N/A   Clear
12:53 PM 66.9 °F - 18.0 °F 15% 29.75 in 10.0 mi WSW 5.8 mph - N/A   Clear
1:53 PM 69.1 °F - 16.0 °F 13% 29.72 in 10.0 mi West 6.9 mph - N/A   Clear
2:53 PM 64.0 °F - 17.1 °F 16% 29.72 in 10.0 mi WNW 4.6 mph - N/A   Clear
3:53 PM 55.9 °F - 17.1 °F 22% 29.74 in 3.0 mi Calm Calm - N/A   Haze
4:01 PM 53.6 °F - 17.6 °F 24% 29.73 in 2.0 mi South 3.5 mph - N/A   Haze
4:11 PM 53.6 °F - 17.6 °F 24% 29.73 in 4.0 mi SW 3.5 mph - N/A   Haze
4:53 PM 48.0 °F - 17.1 °F 29% 29.75 in 8.0 mi Calm Calm - N/A   Clear
5:53 PM 41.0 °F 39.0 °F 19.0 °F 41% 29.77 in 10.0 mi West 3.5 mph - N/A   Clear
6:53 PM 39.0 °F - 18.0 °F 43% 29.79 in 10.0 mi Calm Calm - N/A   Clear
7:53 PM 30.9 °F 26.2 °F 16.0 °F 54% 29.81 in 10.0 mi North 4.6 mph - N/A   Clear
8:53 PM 30.9 °F 25.2 °F 16.0 °F 54% 29.81 in 10.0 mi NNW 5.8 mph - N/A   Clear
9:53 PM 33.1 °F - 19.0 °F 56% 29.79 in 10.0 mi Calm Calm - N/A   Clear
10:53 PM 30.0 °F - 19.0 °F 64% 29.78 in 10.0 mi Calm Calm - N/A   Clear
11:53 PM 28.9 °F - 19.9 °F 69% 29.74 in 10.0 mi Calm Calm - N/A   Clear